Location: Sobotiste
(48.7170°N, 17.4000°E)
Time: 12:04:25
(UTC+02:00)

Amateur Radio Satellites - All Passes

Search period start: 21 August 2017 11:34
Search period end: 22 August 2017 11:34
Location: Sobotiste, 48.7170°N, 17.4000°E

Satellite Date Start Highest point End Downlink Frequencies (MHz)
Time Altitude Azimuth
DELFI C3 21 Aug 11:42:30 11:45:39 23° 295° (WNW) 11:48:47 145.870
BEESAT 2 21 Aug 11:45:44 11:46:22 10° 16° (NNE) 11:46:59 435.950
AIST 2D 21 Aug 11:53:33 11:56:38 29° 264° (W) 11:59:46 435.315
ESTCUBE 1 21 Aug 11:55:25 11:59:39 36° 97° (E) 12:03:50 437.505/2401.250
NANOSAT C BR1 21 Aug 11:55:44 11:59:55 83° 257° (WSW) 12:04:07 145.865
POLYITAN 1 21 Aug 12:00:36 12:04:46 67° 258° (WSW) 12:08:58 437.675
SPROUT 21 Aug 12:09:37 12:11:51 14° 89° (E) 12:14:04 437.525
Gurwin Techsat 1B 21 Aug 12:13:16 12:16:55 19° 56° (ENE) 12:20:34 435.225
QB50P2 21 Aug 12:16:00 12:20:00 42° 261° (W) 12:24:02 145.880/145.840
EO-79 21 Aug 12:16:35 12:20:37 46° 261° (W) 12:24:42 145.935-145.965
LO-87 21 Aug 12:16:53 12:20:26 81° 282° (WNW) 12:23:57 145.935 - 145.965
EO-88 21 Aug 12:22:27 12:24:11 13° 299° (WNW) 12:25:55 145.990 - 145.960
M-CUBED/EXP-1 PRIME 21 Aug 12:24:33 12:27:37 18° 265° (W) 12:30:47 437.505
AO-7 21 Aug 12:25:09 12:29:38 16° 34° (NE) 12:34:05 .
ISS 21 Aug 12:35:59 12:39:14 60° 347° (NNW) 12:42:30 437.550
Oscar 19 21 Aug 12:36:40 12:41:24 38° 65° (ENE) 12:46:10 437.125/150
nSIGHT-1 21 Aug 12:44:12 12:47:25 56° 349° (N) 12:50:39 .
BUGSAT 1 21 Aug 12:45:40 12:49:46 88° 78° (ENE) 12:53:51 437.445
DUCHIFAT 1 21 Aug 12:46:58 12:50:36 28° 265° (W) 12:54:14 145.980
RS-15 21 Aug 12:57:22 13:09:42 73° 314° (NW) 13:22:03 29.354- 29.394
Tancredo 1 21 Aug 13:00:46 13:03:36 45° 5° (N) 13:06:25 437.200
AO-85 21 Aug 13:03:03 13:06:53 34° 41° (NE) 13:10:58 145.980
50 SAT 21 Aug 13:04:37 13:06:15 13° 91° (E) 13:07:53 437.505
BEESAT 3 21 Aug 13:07:33 13:11:28 47° 45° (NE) 13:15:18 437.485
UKube-1 21 Aug 13:18:53 13:20:15 11° 87° (E) 13:21:36 .
BEESAT 2 21 Aug 13:21:50 13:25:24 28° 38° (NE) 13:28:58 435.950
ESTCUBE 1 21 Aug 13:32:24 13:36:20 29° 295° (WNW) 13:40:15 437.505/2401.250
VELOX 1 21 Aug 13:37:42 13:42:10 82° 104° (ESE) 13:46:34 145.980
DX 1 21 Aug 13:39:04 13:42:47 27° 95° (E) 13:46:28 434.975-435.025
SPROUT 21 Aug 13:43:59 13:48:13 67° 287° (WNW) 13:52:25 437.525
Gurwin Techsat 1B 21 Aug 13:50:56 13:56:15 79° 256° (WSW) 14:01:37 435.225
ITAMSAT 1 21 Aug 13:58:05 14:01:45 20° 57° (ENE) 14:05:24 435.822/435.867
AO-7 21 Aug 14:12:34 14:20:26 48° 58° (ENE) 14:28:20 .
ISS 21 Aug 14:12:46 14:15:59 51° 7° (N) 14:19:12 437.550
Oscar 19 21 Aug 14:16:07 14:20:46 34° 264° (W) 14:25:28 437.125/150
nSIGHT-1 21 Aug 14:20:52 14:24:05 54° 9° (N) 14:27:17 .
50 SAT 21 Aug 14:35:56 14:39:11 46° 289° (WNW) 14:42:25 437.505
Tancredo 1 21 Aug 14:36:00 14:38:54 72° 204° (SSW) 14:41:47 437.200
AO-85 21 Aug 14:43:21 14:47:21 39° 240° (WSW) 14:51:37 145.980
BEESAT 3 21 Aug 14:45:36 14:48:47 23° 245° (WSW) 14:51:55 437.485
UKube-1 21 Aug 14:52:32 14:56:52 85° 290° (WNW) 15:01:11 .
BEESAT 2 21 Aug 14:59:25 15:03:20 45° 238° (WSW) 15:07:10 435.950
MOZHAYETS 4 21 Aug 15:09:53 15:13:01 18° 90° (E) 15:16:07
RS-15 21 Aug 15:13:12 15:24:37 40° 345° (NNW) 15:35:51 29.354- 29.394
DX 1 21 Aug 15:15:03 15:19:03 36° 293° (WNW) 15:23:01 434.975-435.025
VELOX 1 21 Aug 15:15:37 15:18:00 14° 303° (WNW) 15:20:22 145.980
BEESAT 21 Aug 15:28:01 15:32:11 29° 95° (E) 15:36:19 436.000
YUBILEINY 21 Aug 15:28:52 15:36:59 44° 86° (E) 15:45:04 435.215
Gurwin Techsat 1B 21 Aug 15:34:59 15:37:04 12° 275° (W) 15:39:11 435.225
ITAMSAT 1 21 Aug 15:35:28 15:40:40 75° 256° (WSW) 15:45:53 435.822/435.867
ISS 21 Aug 15:49:19 15:52:34 62° 206° (SSW) 15:55:48 437.550
nSIGHT-1 21 Aug 15:57:20 16:00:30 52° 209° (SSW) 16:03:40 .
ITUPSAT 1 21 Aug 16:02:16 16:07:00 58° 102° (ESE) 16:11:42 437.325
AO-7 21 Aug 16:05:09 16:13:12 50° 259° (W) 16:21:18 .
CUTE-I 21 Aug 16:11:42 16:13:28 12° 50° (NE) 16:15:14 437.470
Tancredo 1 21 Aug 16:12:09 16:13:39 13° 222° (SW) 16:15:09 437.200
UKube-1 21 Aug 16:30:30 16:32:12 12° 304° (NW) 16:33:55 .
DOVE 4 21 Aug 16:38:50 16:43:45 42° 69° (ENE) 16:48:34 437.250
MOZHAYETS 4 21 Aug 16:46:00 16:50:34 61° 288° (WNW) 16:55:06
KAITUO 1B 21 Aug 16:46:51 16:47:51 11° 59° (ENE) 16:48:52 145.475/437.950
KKS-1 21 Aug 16:55:12 16:58:18 18° 91° (E) 17:01:24 437.445
BEESAT 21 Aug 17:05:38 17:10:02 39° 294° (WNW) 17:14:27 436.000
CUBESAT XI-V 21 Aug 17:06:43 17:11:21 52° 99° (E) 17:15:56 437.345
LilacSat-2 21 Aug 17:08:17 17:11:22 24° 66° (ENE) 17:14:28 437.200
XW-2D 21 Aug 17:11:54 17:15:02 25° 66° (ENE) 17:18:11 145.860 - 145.880
NUDT-PHONESAT 21 Aug 17:16:55 17:19:42 21° 65° (ENE) 17:22:30 437.300
HO-68 21 Aug 17:17:27 17:22:47 23° 51° (NE) 17:28:08 435.675
ITAMSAT 1 21 Aug 17:19:37 17:21:01 11° 275° (W) 17:22:26 435.822/435.867
XW-2B 21 Aug 17:22:42 17:26:03 31° 68° (ENE) 17:29:25 145.730 - 145.750
YUBILEINY 21 Aug 17:25:13 17:33:41 50° 289° (WNW) 17:42:11 435.215
ISS 21 Aug 17:26:59 17:28:31 13° 224° (SW) 17:30:01 437.550
RS-15 21 Aug 17:29:28 17:40:58 42° 19° (NNE) 17:52:01 29.354- 29.394
STARS 21 Aug 17:32:34 17:35:40 19° 92° (E) 17:38:45 437.465
nSIGHT-1 21 Aug 17:35:53 17:36:16 10° 226° (SW) 17:36:39 .
ITUPSAT 1 21 Aug 17:40:52 17:44:26 21° 300° (WNW) 17:48:01 437.325
XW-2C 21 Aug 17:41:27 17:45:05 50° 72° (ENE) 17:48:47 145.795 - 145.815
CUTE-I 21 Aug 17:47:12 17:52:27 59° 70° (ENE) 17:57:43 437.470
XW-2F 21 Aug 17:53:09 17:56:51 65° 74° (ENE) 18:00:37 145.980 - 146.000
O/OREOS (USA 219) 21 Aug 18:07:18 18:11:05 25° 50° (NE) 18:14:52 437.305
XW-2A 21 Aug 18:13:50 18:14:31 10° 60° (ENE) 18:15:11 145.665 - 145.685
DOVE 4 21 Aug 18:16:50 18:21:30 31° 266° (W) 18:26:05 437.250
KAITUO 1B 21 Aug 18:17:32 18:21:15 82° 255° (WSW) 18:25:01 145.475/437.950
AAUSAT CUBESAT 2 21 Aug 18:23:30 18:24:38 11° 57° (ENE) 18:25:46 437.432
CUTE 1.7 + AOD 2 21 Aug 18:24:56 18:28:42 32° 67° (ENE) 18:32:31 437.475
KKS-1 21 Aug 18:30:51 18:35:12 54° 290° (WNW) 18:39:31 437.445
UWE-3 21 Aug 18:34:25 18:36:41 15° 60° (ENE) 18:38:58 435.000/436.395/437.385
CUBEBUG 2 21 Aug 18:41:17 18:44:48 26° 66° (ENE) 18:48:17 437.445
LilacSat-2 21 Aug 18:42:08 18:45:31 31° 264° (W) 18:48:57 437.200
CUBESAT XI-V 21 Aug 18:44:44 18:48:23 23° 298° (WNW) 18:52:03 437.345
XW-2D 21 Aug 18:45:49 18:49:08 29° 265° (W) 18:52:29 145.860 - 145.880
NUDT-PHONESAT 21 Aug 18:50:01 18:53:24 35° 263° (W) 18:56:49 437.300
XW-2B 21 Aug 18:57:13 19:00:16 23° 266° (W) 19:03:22 145.730 - 145.750
HO-68 21 Aug 19:02:29 19:09:39 88° 72° (ENE) 19:16:51 435.675
STARS 21 Aug 19:08:04 19:12:19 52° 290° (WNW) 19:16:32 437.465
SEEDS 21 Aug 19:11:20 19:15:29 60° 73° (ENE) 19:19:41 437.485
ZACube-1 21 Aug 19:12:14 19:15:10 19° 62° (ENE) 19:18:08 437.345
XW-2C 21 Aug 19:17:24 19:19:35 15° 270° (W) 19:21:46 145.795 - 145.815
CUTE-I 21 Aug 19:28:42 19:32:53 23° 268° (W) 19:37:05 437.470
STRAND 1 21 Aug 19:28:51 19:32:58 24° 93° (E) 19:37:03 437.568
YUBILEINY 21 Aug 19:29:19 19:33:10 13° 315° (NW) 19:37:01 435.215
XW-2F 21 Aug 19:30:05 19:31:26 12° 272° (W) 19:32:46 145.980 - 146.000
AO-73 21 Aug 19:32:29 19:35:56 26° 66° (ENE) 19:39:24 145.935
RS-15 21 Aug 19:43:12 19:55:29 81° 49° (NE) 20:07:05 29.354- 29.394
XW-2A 21 Aug 19:43:27 19:46:45 66° 258° (WSW) 19:50:05 145.665 - 145.685
O/OREOS (USA 219) 21 Aug 19:46:21 19:50:44 48° 250° (WSW) 19:55:07 437.305
AAUSAT CUBESAT 2 21 Aug 19:55:12 19:59:22 82° 74° (ENE) 20:03:35 437.432
CUTE 1.7 + AOD 2 21 Aug 20:00:51 20:04:32 29° 265° (W) 20:08:17 437.475
UWE-3 21 Aug 20:08:30 20:12:40 70° 258° (WSW) 20:16:49 435.000/436.395/437.385
Oscar 11 21 Aug 20:16:02 20:20:14 55° 72° (ENE) 20:24:29 .
CUBEBUG 2 21 Aug 20:17:26 20:21:19 34° 263° (W) 20:25:10 437.445
Max Valier Satellite 21 Aug 20:36:58 20:39:23 17° 63° (ENE) 20:41:49 145.860
FO-29 21 Aug 20:43:02 20:44:15 11° 81° (E) 20:45:27 435.910
ZACube-1 21 Aug 20:47:08 20:51:09 49° 261° (W) 20:55:11 437.345
SEEDS 21 Aug 20:49:02 20:51:34 15° 271° (W) 20:54:08 437.485
HO-68 21 Aug 20:53:13 20:58:18 20° 272° (W) 21:03:24 435.675
DELFI C3 21 Aug 20:56:02 20:59:43 36° 69° (ENE) 21:03:25 145.870
STRAND 1 21 Aug 21:07:29 21:12:26 52° 291° (WNW) 21:17:22 437.568
AO-73 21 Aug 21:08:20 21:12:05 33° 264° (W) 21:15:52 145.935
EO-88 21 Aug 21:28:24 21:31:54 47° 72° (ENE) 21:35:26 145.990 - 145.960
AAUSAT CUBESAT 2 21 Aug 21:34:06 21:35:23 11° 273° (W) 21:36:41 437.432
UNISAT 6 21 Aug 21:38:40 21:40:53 14° 89° (E) 21:43:06 437.425
Oscar 11 21 Aug 21:53:50 21:56:43 17° 270° (W) 21:59:38 .
RS-15 21 Aug 21:56:32 22:06:48 36° 255° (WSW) 22:16:41 29.354- 29.394
PCSat 21 Aug 22:05:32 22:09:47 24° 109° (ESE) 22:14:04 145.827
Max Valier Satellite 21 Aug 22:09:26 22:12:55 43° 261° (W) 22:16:26 145.860
TIGRISAT 21 Aug 22:12:28 22:16:08 27° 95° (E) 22:19:49 435.000
FO-29 21 Aug 22:24:53 22:30:38 75° 103° (ESE) 22:35:52 435.910
DELFI C3 21 Aug 22:31:23 22:34:35 23° 267° (W) 22:37:48 145.870
LO-87 21 Aug 22:56:05 22:59:39 71° 75° (ENE) 23:03:14 145.935 - 145.965
ESTCUBE 1 21 Aug 22:58:18 23:02:40 52° 70° (ENE) 23:07:06 437.505/2401.250
EO-88 21 Aug 23:03:44 23:05:51 15° 270° (W) 23:07:57 145.990 - 145.960
VELOX 1 21 Aug 23:04:01 23:06:47 16° 59° (ENE) 23:09:34 145.980
SPROUT 21 Aug 23:06:21 23:09:19 19° 61° (ENE) 23:12:17 437.525
PRISM 21 Aug 23:06:44 23:10:53 69° 103° (ESE) 23:14:58 437.425
UNISAT 6 21 Aug 23:13:47 23:18:04 71° 287° (WNW) 23:22:25 437.425
AIST 2D 21 Aug 23:15:03 23:17:16 16° 91° (E) 23:19:29 435.315
SO-50 21 Aug 23:31:15 23:35:41 60° 124° (SE) 23:40:08 436.795
NANOSAT C BR1 21 Aug 23:37:52 23:39:30 12° 88° (E) 23:41:06 145.865
50 SAT 21 Aug 23:40:41 23:41:10 10° 59° (ENE) 23:41:40 437.505
POLYITAN 1 21 Aug 23:42:32 23:44:59 15° 90° (E) 23:47:26 437.675
PCSat 21 Aug 23:47:22 23:52:45 65° 308° (NW) 23:58:11 145.827
TIGRISAT 21 Aug 23:48:58 23:52:53 35° 292° (WNW) 23:56:51 435.000
QB50P2 21 Aug 23:57:02 00:00:24 23° 93° (E) 00:03:45 145.880/145.840
EO-79 21 Aug 23:57:34 00:00:48 21° 93° (E) 00:04:00 145.935-145.965
M-CUBED/EXP-1 PRIME 21 Aug 23:58:11 00:01:52 26° 98° (E) 00:05:20 437.505
FO-29 22 Aug 00:11:01 00:15:02 20° 306° (NW) 00:18:50 435.910
UKube-1 22 Aug 00:16:10 00:19:04 18° 60° (ENE) 00:21:57 .
DUCHIFAT 1 22 Aug 00:26:19 00:30:06 32° 96° (E) 00:33:52 145.980
ESTCUBE 1 22 Aug 00:36:29 00:39:47 20° 269° (W) 00:43:07 437.505/2401.250
DX 1 22 Aug 00:37:54 00:41:57 38° 67° (ENE) 00:46:02 434.975-435.025
VELOX 1 22 Aug 00:38:16 00:42:43 71° 257° (WSW) 00:47:11 145.980
SPROUT 22 Aug 00:40:40 00:44:51 54° 260° (W) 00:49:03 437.525
PRISM 22 Aug 00:43:17 00:45:39 15° 301° (WNW) 00:48:01 437.425
AIST 2D 22 Aug 00:47:17 00:50:41 42° 289° (WNW) 00:54:03 435.315
50 SAT 22 Aug 01:09:54 01:13:18 73° 258° (WSW) 01:16:44 437.505
NANOSAT C BR1 22 Aug 01:11:33 01:15:44 77° 286° (WNW) 01:19:55 145.865
SO-50 22 Aug 01:12:35 01:16:28 27° 325° (NW) 01:20:21 436.795
POLYITAN 1 22 Aug 01:17:01 01:21:11 61° 287° (WNW) 01:25:20 437.675
M-CUBED/EXP-1 PRIME 22 Aug 01:32:14 01:36:24 39° 298° (WNW) 01:40:17 437.505
QB50P2 22 Aug 01:32:23 01:36:20 40° 291° (WNW) 01:40:16 145.880/145.840
EO-79 22 Aug 01:32:46 01:36:45 43° 291° (WNW) 01:40:43 145.935-145.965
PCSat 22 Aug 01:33:22 01:37:13 19° 331° (NNW) 01:41:05 145.827
YUBILEINY 22 Aug 01:33:42 01:40:54 27° 60° (ENE) 01:48:02 435.215
ITUPSAT 1 22 Aug 01:37:12 01:40:09 17° 57° (ENE) 01:43:05 437.325
UKube-1 22 Aug 01:50:22 01:54:39 62° 258° (WSW) 01:58:58 .
BUGSAT 1 22 Aug 01:58:34 02:02:36 88° 104° (ESE) 02:06:38 437.445
DUCHIFAT 1 22 Aug 02:02:07 02:05:42 28° 294° (WNW) 02:09:16 145.980
Gurwin Techsat 1B 22 Aug 02:03:26 02:08:08 30° 95° (E) 02:12:46 435.225
NO-84 22 Aug 02:05:11 02:08:00 60° 145° (SE) 02:10:49 435.350 FM
DX 1 22 Aug 02:14:36 02:18:14 25° 266° (W) 02:21:55 434.975-435.025
MOZHAYETS 4 22 Aug 02:15:12 02:19:00 27° 64° (ENE) 02:22:49
Oscar 19 22 Aug 02:22:50 02:28:02 64° 102° (ESE) 02:33:12 437.125/150
BEESAT 22 Aug 02:37:50 02:42:26 52° 69° (ENE) 02:47:04 436.000
CUBESAT XI-V 22 Aug 02:39:33 02:41:29 12° 55° (NE) 02:43:25 437.345
NANOSAT C BR1 22 Aug 02:49:54 02:50:43 10° 304° (NW) 02:51:31 145.865
SO-50 22 Aug 02:56:42 02:58:25 12° 349° (NNW) 03:00:10 436.795
ITUPSAT 1 22 Aug 03:12:37 03:17:23 79° 256° (WSW) 03:22:10 437.325
PCSat 22 Aug 03:21:28 03:22:55 11° 357° (N) 03:24:21 145.827
YUBILEINY 22 Aug 03:30:03 03:38:47 81° 263° (W) 03:47:28 435.215
BUGSAT 1 22 Aug 03:35:57 03:37:21 12° 303° (WNW) 03:38:44 437.445
NO-84 22 Aug 03:42:59 03:45:32 29° 345° (NNW) 03:48:07 435.350 FM
Gurwin Techsat 1B 22 Aug 03:43:11 03:48:14 44° 293° (WNW) 03:53:14 435.225
ITAMSAT 1 22 Aug 03:44:39 03:49:07 28° 94° (E) 03:53:33 435.822/435.867
MOZHAYETS 4 22 Aug 03:51:42 03:55:59 40° 262° (W) 04:00:19
KKS-1 22 Aug 03:56:31 04:00:20 28° 64° (ENE) 04:04:10 437.445
AO-7 22 Aug 04:01:50 04:09:48 47° 100° (E) 04:17:41 .
Oscar 19 22 Aug 04:02:57 04:06:55 23° 301° (WNW) 04:10:53 437.125/150
CUBESAT XI-V 22 Aug 04:13:24 04:18:03 78° 74° (ENE) 04:22:46 437.345
BEESAT 22 Aug 04:16:53 04:20:31 22° 268° (W) 04:24:10 436.000
STARS 22 Aug 04:32:26 04:36:11 28° 64° (ENE) 04:39:56 437.465
BEESAT 3 22 Aug 04:38:25 04:41:29 21° 115° (ESE) 04:44:35 437.485
SO-50 22 Aug 04:38:54 04:40:52 13° 14° (NNE) 04:42:51 436.795
ITUPSAT 1 22 Aug 04:55:07 04:56:01 10° 274° (W) 04:56:53 437.325
BEESAT 2 22 Aug 04:56:28 04:57:43 11° 109° (ESE) 04:59:00 435.950
AO-85 22 Aug 05:02:10 05:05:12 22° 116° (ESE) 05:08:15 145.980
PCSat 22 Aug 05:05:23 05:08:44 16° 24° (NNE) 05:12:05 145.827
NO-84 22 Aug 05:21:05 05:23:30 24° 7° (N) 05:25:59 435.350 FM
ITAMSAT 1 22 Aug 05:23:50 05:28:45 45° 293° (WNW) 05:33:39 435.822/435.867
YUBILEINY 22 Aug 05:28:34 05:34:10 19° 286° (WNW) 05:39:47 435.215
KKS-1 22 Aug 05:32:39 05:36:47 36° 262° (W) 05:40:57 437.445
CUBESAT XI-V 22 Aug 05:53:33 05:56:01 14° 273° (W) 05:58:29 437.345
AO-7 22 Aug 05:54:44 06:02:40 50° 301° (WNW) 06:10:33 .
CUTE-I 22 Aug 06:01:18 06:04:43 17° 89° (E) 06:08:06 437.470
STARS 22 Aug 06:08:22 06:12:26 36° 263° (W) 06:16:29 437.465
LilacSat-2 22 Aug 06:11:23 06:14:23 21° 93° (E) 06:17:22 437.200
DOVE 4 22 Aug 06:11:26 06:16:00 59° 100° (E) 06:20:17 437.250
XW-2D 22 Aug 06:14:15 06:17:16 22° 93° (E) 06:20:17 145.860 - 145.880
BEESAT 3 22 Aug 06:14:50 06:18:46 51° 314° (NW) 06:22:45 437.485
NUDT-PHONESAT 22 Aug 06:16:48 06:19:17 17° 91° (E) 06:21:44 437.300
SO-50 22 Aug 06:18:40 06:22:44 31° 37° (NE) 06:26:49 436.795
XW-2B 22 Aug 06:25:07 06:28:26 27° 95° (E) 06:31:44 145.730 - 145.750
HO-68 22 Aug 06:28:17 06:31:28 13° 83° (E) 06:34:37 435.675
BEESAT 2 22 Aug 06:30:46 06:34:47 88° 128° (SE) 06:38:53 435.950
AO-85 22 Aug 06:41:32 06:45:19 46° 315° (NW) 06:49:08 145.980
XW-2C 22 Aug 06:44:00 06:47:42 44° 99° (E) 06:51:24 145.795 - 145.815
PCSat 22 Aug 06:48:11 06:53:29 49° 48° (NE) 06:58:44 145.827
STRAND 1 22 Aug 06:48:13 06:53:08 50° 69° (ENE) 06:58:04 437.568
XW-2F 22 Aug 06:55:13 06:59:00 55° 100° (E) 07:02:46 145.980 - 146.000
NO-84 22 Aug 06:58:22 07:01:16 62° 27° (NNE) 07:04:21 435.350 FM
FO-29 22 Aug 06:59:04 07:02:25 14° 49° (NE) 07:05:37 435.910
KAITUO 1B 22 Aug 07:18:32 07:22:23 83° 107° (ESE) 07:26:11 145.475/437.950
CUTE-I 22 Aug 07:40:03 07:45:23 78° 288° (WNW) 07:50:41 437.470
CUTE 1.7 + AOD 2 22 Aug 07:41:04 07:45:04 37° 96° (E) 07:49:03 437.475
LilacSat-2 22 Aug 07:45:11 07:48:46 36° 291° (WNW) 07:52:21 437.200
XW-2D 22 Aug 07:48:01 07:51:33 35° 291° (WNW) 07:55:04 145.860 - 145.880
AO-7 22 Aug 07:48:55 07:53:34 16° 325° (NW) 07:58:12 .
NUDT-PHONESAT 22 Aug 07:49:48 07:53:23 44° 289° (WNW) 07:56:58 437.300
DOVE 4 22 Aug 07:50:01 07:53:13 19° 301° (WNW) 07:56:19 437.250
UWE-3 22 Aug 07:54:35 07:57:27 17° 91° (E) 08:00:20 435.000/436.395/437.385
BEESAT 3 22 Aug 07:55:05 07:57:14 14° 335° (NNW) 07:59:24 437.485
SO-50 22 Aug 07:58:58 08:03:24 51° 237° (WSW) 08:07:51 436.795
XW-2B 22 Aug 07:59:16 08:02:36 28° 292° (WNW) 08:05:54 145.730 - 145.750
CUBEBUG 2 22 Aug 08:03:32 08:07:23 33° 97° (E) 08:11:15 437.445
BEESAT 2 22 Aug 08:10:08 08:13:06 19° 329° (NNW) 08:16:04 435.950
HO-68 22 Aug 08:13:25 08:20:34 67° 104° (ESE) 08:27:41 435.675
XW-2C 22 Aug 08:18:53 08:21:36 19° 297° (WNW) 08:24:19 145.795 - 145.815
AO-85 22 Aug 08:24:54 08:26:41 13° 338° (NNW) 08:28:30 145.980
O/OREOS (USA 219) 22 Aug 08:26:27 08:27:54 11° 97° (E) 08:29:21 437.305
SEEDS 22 Aug 08:26:34 08:30:50 70° 101° (E) 08:35:05 437.485
PRISM 22 Aug 08:27:32 08:28:44 11° 56° (NE) 08:29:58 437.425
STRAND 1 22 Aug 08:28:25 08:32:35 25° 267° (W) 08:36:46 437.568
XW-2F 22 Aug 08:30:26 08:32:44 15° 298° (WNW) 08:35:02 145.980 - 146.000
ZACube-1 22 Aug 08:31:20 08:34:48 23° 93° (E) 08:38:18 437.345
PCSat 22 Aug 08:31:53 08:36:43 33° 248° (WSW) 08:41:31 145.827
XW-2A 22 Aug 08:33:44 08:37:09 73° 102° (ESE) 08:40:33 145.665 - 145.685
NO-84 22 Aug 08:36:07 08:38:27 20° 224° (SW) 08:40:54 435.350 FM
FO-29 22 Aug 08:39:05 08:46:18 56° 68° (ENE) 08:52:47 435.910
Tancredo 1 22 Aug 08:40:45 08:42:17 13° 138° (SE) 08:43:49 437.200
UNISAT 6 22 Aug 08:40:57 08:44:05 20° 62° (ENE) 08:47:12 437.425
AO-73 22 Aug 08:51:33 08:55:25 33° 96° (E) 08:59:22 145.935
KAITUO 1B 22 Aug 08:54:40 08:55:46 11° 301° (WNW) 08:56:52 145.475/437.950
AAUSAT CUBESAT 2 22 Aug 09:08:36 09:12:49 90° 60° (ENE) 09:16:59 437.432
TIGRISAT 22 Aug 09:14:42 09:18:39 37° 68° (ENE) 09:22:35 435.000
M-CUBED/EXP-1 PRIME 22 Aug 09:15:31 09:17:06 12° 47° (NE) 09:18:42 437.505
CUTE 1.7 + AOD 2 22 Aug 09:17:10 09:20:45 26° 295° (WNW) 09:24:20 437.475
CUTE-I 22 Aug 09:21:45 09:24:36 15° 307° (NW) 09:27:26 437.470
UWE-3 22 Aug 09:30:05 09:34:12 54° 289° (WNW) 09:38:25 435.000/436.395/437.385
Oscar 11 22 Aug 09:35:05 09:39:26 67° 101° (E) 09:43:46 .
Max Valier Satellite 22 Aug 09:36:34 09:38:22 13° 90° (E) 09:40:10 145.860
CUBEBUG 2 22 Aug 09:40:22 09:43:55 27° 294° (WNW) 09:47:31 437.445
AIST 2D 22 Aug 09:54:16 09:55:28 11° 60° (ENE) 09:56:41 435.315
PRISM 22 Aug 09:59:08 10:03:18 82° 76° (ENE) 10:07:30 437.425
HO-68 22 Aug 10:01:45 10:07:51 32° 304° (NW) 10:13:58 435.675
O/OREOS (USA 219) 22 Aug 10:02:05 10:06:34 89° 295° (WNW) 10:11:05 437.305
SEEDS 22 Aug 10:03:30 10:06:01 15° 300° (WNW) 10:08:31 437.485
DELFI C3 22 Aug 10:03:30 10:07:10 34° 96° (E) 10:10:47 145.870
ZACube-1 22 Aug 10:07:13 10:11:13 40° 291° (WNW) 10:15:18 437.345
ISS 22 Aug 10:07:54 10:10:39 25° 143° (SE) 10:13:25 437.550
XW-2A 22 Aug 10:09:02 10:09:21 10° 300° (WNW) 10:09:38 145.665 - 145.685
RS-15 22 Aug 10:11:51 10:22:13 34° 105° (ESE) 10:32:36 29.354- 29.394
Tancredo 1 22 Aug 10:14:08 10:17:02 72° 155° (SSE) 10:19:57 437.200
nSIGHT-1 22 Aug 10:14:32 10:17:25 29° 144° (SE) 10:20:18 .
UNISAT 6 22 Aug 10:16:17 10:20:29 50° 260° (W) 10:24:40 437.425
FO-29 22 Aug 10:24:50 10:31:33 35° 265° (W) 10:37:41 435.910
EO-88 22 Aug 10:26:42 10:30:08 36° 97° (E) 10:33:32 145.990 - 145.960
AO-73 22 Aug 10:27:55 10:31:36 29° 294° (WNW) 10:35:22 145.935
NANOSAT C BR1 22 Aug 10:33:15 10:35:50 16° 60° (ENE) 10:38:25 145.865
POLYITAN 1 22 Aug 10:38:36 10:41:37 20° 62° (ENE) 10:44:38 437.675
AAUSAT CUBESAT 2 22 Aug 10:45:59 10:47:36 12° 303° (WNW) 10:49:14 437.432
M-CUBED/EXP-1 PRIME 22 Aug 10:46:06 10:50:36 61° 66° (ENE) 10:55:14 437.505
TIGRISAT 22 Aug 10:51:53 10:55:27 25° 266° (W) 10:59:00 435.000
QB50P2 22 Aug 10:53:06 10:56:42 28° 66° (ENE) 11:00:19 145.880/145.840
EO-79 22 Aug 10:53:28 10:56:57 26° 65° (ENE) 11:00:28 145.935-145.965
Max Valier Satellite 22 Aug 11:08:55 11:12:33 55° 287° (WNW) 11:16:11 145.860
Oscar 11 22 Aug 11:12:22 11:15:05 16° 300° (WNW) 11:17:49 .
BEESAT 3 22 Aug 11:14:00 11:15:58 13° 23° (NNE) 11:17:55 437.485
BUGSAT 1 22 Aug 11:19:02 11:20:49 13° 58° (ENE) 11:22:35 437.445
DUCHIFAT 1 22 Aug 11:21:28 11:25:21 39° 69° (ENE) 11:29:15 145.980
AIST 2D 22 Aug 11:24:43 11:28:09 66° 258° (WSW) 11:31:40 435.315
BEESAT 2 22 Aug 11:31:18 11:32:06 10° 16° (NNE) 11:32:53 435.950
